BREEZE-M DEB, 43414

Orbit data source: Space-Track

BREEZE-M DEB, 43414 is space debris in HEO originally from a launch on Fri, 14 Feb 2014 UTC launched from the Tyuratam Missile And Space Complex (TTMTR). Debris objects in space refer to the collection of defunct objects orbiting the Earth. Examples of debris include non-operational satellites, rocket bodies, and fragments generated from explosions, collisions, or faulty payload assembly.

Loading next visibility...
Identifier
43414, 2014-007D
Orbit
HEO
Country
Flag of CISCIS
Related business
Manufacturer
Khrunichev
Mission
Spacecraft
Bus & Motor
Unknown
Mass
Unknown
Launch date (UTC)
2014-02-14 (12 years ago)
Launch vehicle
Unknown
Launch site
Tyuratam Missile And Space Complex (TTMTR)
Object type
Payload
Rocket body
Debris
Shape & HBR
Unknown shape, 1.1 m
Radar Cross Section
Medium (>0.1 m² and <1 m²)

Expand to show TLE details & history
Last TLE update: 2 days ago

TLE from 2 days ago
0 BREEZE-M DEB
1 43414U 14007D   26171.28500138 -.00000109  00000-0  00000+0 0  9992
2 43414  14.6743  27.7664 4686799 130.0357 281.4385  1.89405164 80819
Epoch: 2026-06-20T06:50Z
TLE epoch observation values (Epoch: 2026-06-20T06:50:24.119Z)
Latitude
-0.00001°
Longitude
16.65718°
Altitude
24,426.121 km
Speed
3.382 km/s
True Right ascension
01h 51m 02s
True Declination
0° 00' 00"
Sunlit
Object was in daylight at epoch
Visualization orbit readout
Latitude
Unknown
Longitude
Unknown
Altitude
Unknown
Speed
Unknown
Apparent Right ascension
Unknown
Apparent Declination
Unknown
Sunlit
N/A
Visualization observer readout
Local Sidereal Time
21:32:50
Azimuth
Unknown
Elevation
Unknown
Doppler factor
Unknown
Orbital elements
Apogee altitude
34,151.027 km
Perigee altitude
8,283.982 km
Semi-major axis
27,595.642 km
Eccentricity
0.46868
Inclination
14.6743°
RAAN
27.7664°
Arg. of periapsis
130.0357°
True anomaly
229.90148°
Mean anomaly
281.4385°
Eccentric anomaly
255.44673°
Mean motion
0.47346 °/min
Orbital period
760.36 mins
BSTAR
0
Loading maneuver chart data...
Computing Atmospheric mass density...
Loading historical data...
Loading historical data...
Loading historical data...
Loading historical data...
Loading historical data...
Loading historical data...
Loading historical data...
Other satellites on launch #7 in the year 2014 (2014-02-14 UTC)

Documentation

Showing up to 5 results
|